Flag for Germany Weather past 2 weeks in Gaggenau, Baden-Württemberg, Germany

Now
54 °F

Sunny.


Feels Like: 52 °F
Forecast: 47 / 70 °F
Wind: 7 mph from Northeast

Location: Karlsruhe - Baden Wurttemberg


UV Index: 0 (Low)

Visibility: 10 mi


Pressure: 29.80 "Hg

Humidity: 72%

Dew point: 45 °F

Location of GaggenauLocation

Historic Weather in Gaggenau

°F

Gaggenau temperature yesterday

Maximum temperature yesterday: 75 °F (at 3:20 PM)
Minimum temperature yesterday: 45 °F (at 5:50 AM)
Average temperature yesterday: 62 °F

Past Weeks' High & Low Weather Summary

 TemperatureHumidityPressure
High75 °F (Apr 24, 3:20 PM)100% (Apr 19, 5:50 AM)30.36 "Hg (Apr 19, 5:50 AM)
Low34 °F (Apr 16, 5:20 AM)24% (Apr 17, 3:20 PM)29.62 "Hg (Apr 20, 5:20 PM)
Average54 °F59%30.01 "Hg
* Reported Apr 10 6:20 AM — Apr 25 6:50 AM, Gaggenau, Weather by CustomWeather, © 2014

Note: Actual official high and low records may vary slightly from our data, if they occured in-between our weather recording intervals... More about our weather records

Advertising

Historic Weather Conditions — Data for Previous 24 hours

 ConditionsComfort  
Time TempWeatherWind HumidityBarometerVisibility
6:50 AM
Apr 25
52 °FClear.6 mph77%29.80 "Hg10 mi
6:20 AM52 °FClear.9 mph77%29.80 "Hg10 mi
5:50 AM52 °FClear.7 mph72%29.80 "Hg10 mi
5:20 AM54 °FClear.6 mph72%29.83 "Hg10 mi
4:50 AM55 °FClear.9 mph67%29.83 "Hg10 mi
11:50 PM
Apr 24
59 °FClear.2 mph55%29.86 "Hg10 mi
11:20 PM61 °FClear.3 mph52%29.89 "Hg10 mi
10:50 PM59 °FClear.3 mph55%29.89 "Hg10 mi
10:20 PM61 °FClear.6 mph52%29.89 "Hg10 mi
9:50 PM63 °FClear.6 mph49%29.89 "Hg10 mi
9:20 PM63 °FSunny.5 mph49%29.89 "Hg10 mi
8:50 PM66 °FSunny.6 mph40%29.89 "Hg10 mi
8:20 PM66 °FSunny.7 mph40%29.89 "Hg10 mi
7:50 PM68 °FSunny.8 mph40%29.89 "Hg10 mi
7:20 PM72 °FSunny.7 mph33%29.89 "Hg10 mi
6:50 PM73 °FSunny.9 mph29%29.89 "Hg10 mi
6:20 PM75 °FSunny.12 mph25%29.89 "Hg10 mi
5:50 PM75 °FSunny.9 mph25%29.92 "Hg10 mi
5:20 PM75 °FPassing clouds.9 mph25%29.92 "HgN/A
4:50 PM75 °FPassing clouds.12 mph25%29.92 "HgN/A
4:20 PM75 °FPassing clouds.10 mph29%29.95 "HgN/A
3:50 PM75 °FPassing clouds.10 mph31%29.95 "HgN/A
3:20 PM75 °FPassing clouds.10 mph36%29.98 "HgN/A
2:50 PM72 °FPassing clouds.10 mph38%29.98 "HgN/A
2:20 PM70 °FSunny.7 mph46%30.01 "Hg10 mi
1:50 PM70 °FPassing clouds.7 mph50%30.01 "HgN/A
1:20 PM66 °FSunny.7 mph56%30.04 "Hg10 mi
12:50 PM66 °FPassing clouds.7 mph60%30.04 "HgN/A
12:20 PM64 °FPassing clouds.7 mph64%30.07 "HgN/A
11:50 AM63 °FPassing clouds.6 mph68%30.07 "HgN/A
11:20 AM63 °FPassing clouds.7 mph59%30.07 "HgN/A
10:50 AM61 °FPassing clouds.7 mph68%30.07 "HgN/A
10:20 AM59 °FPassing clouds.5 mph72%30.09 "HgN/A
9:50 AM57 °FPassing clouds.5 mph77%30.09 "HgN/A
9:20 AM55 °FSunny.5 mph82%30.09 "Hg10 mi
8:50 AM54 °FSunny.3 mph88%30.09 "Hg10 mi
8:20 AM52 °FSunny.2 mph94%30.09 "Hg10 mi
Weather by CustomWeather, © 2014

See weather overview